Lake Lanier Weather Center

Moon Phase Calendar



Lake Lanier Water Level
Online Cameras

 


      

Current Conditions in Olde Federal Pointe
3/3/2021 12:43:33 AM

41°F
Feels Like 35
Clouds
Humidity
61%
Pressure
30.12"
Wind
3.4 mph (E)
Dew Point
29°F
UV Index
0/10 (Low)
Visibility
6 mi

Hourly Forecast

Date & Time Wed, Mar 3
12:00 AM
Wed, Mar 3
1:00 AM
Wed, Mar 3
2:00 AM
Wed, Mar 3
3:00 AM
Wed, Mar 3
4:00 AM
Wed, Mar 3
5:00 AM
Wed, Mar 3
6:00 AM
Wed, Mar 3
7:00 AM
Wed, Mar 3
8:00 AM
Wed, Mar 3
9:00 AM
Wed, Mar 3
10:00 AM
Wed, Mar 3
11:00 AM
Wed, Mar 3
12:00 PM
Wed, Mar 3
1:00 PM
Wed, Mar 3
2:00 PM
Wed, Mar 3
3:00 PM
Wed, Mar 3
4:00 PM
Wed, Mar 3
5:00 PM
Wed, Mar 3
6:00 PM
Wed, Mar 3
7:00 PM
Wed, Mar 3
8:00 PM
Wed, Mar 3
9:00 PM
Wed, Mar 3
10:00 PM
Wed, Mar 3
11:00 PM
Thu, Mar 4
12:00 AM
Thu, Mar 4
1:00 AM
Thu, Mar 4
2:00 AM
Thu, Mar 4
3:00 AM
Thu, Mar 4
4:00 AM
Thu, Mar 4
5:00 AM
Thu, Mar 4
6:00 AM
Thu, Mar 4
7:00 AM
Thu, Mar 4
8:00 AM
Thu, Mar 4
9:00 AM
Thu, Mar 4
10:00 AM
Thu, Mar 4
11:00 AM
Thu, Mar 4
12:00 PM
Thu, Mar 4
1:00 PM
Thu, Mar 4
2:00 PM
Thu, Mar 4
3:00 PM
Thu, Mar 4
4:00 PM
Thu, Mar 4
5:00 PM
Thu, Mar 4
6:00 PM
Thu, Mar 4
7:00 PM
Thu, Mar 4
8:00 PM
Thu, Mar 4
9:00 PM
Thu, Mar 4
10:00 PM
Thu, Mar 4
11:00 PM
Condition
Rain

Rain

Clouds

Rain

Rain

Clouds

Clouds

Clouds

Clouds

Clouds

Clear

Clear

Clear

Clear

Clear

Clear

Clear

Clear

Clear

Clear

Clear

Clear

Clear

Clear

Clear

Clear

Clear

Clear

Clear

Clear

Clear

Clear

Clear

Clear

Clear

Clear

Clear

Clear

Clear

Clear

Clear

Clear

Clear

Clear

Clear

Clear

Clear

Clear
Temperature 41°F40°F39°F38°F38°F38°F38°F38°F40°F45°F49°F54°F59°F61°F63°F62°F62°F60°F54°F48°F45°F44°F44°F43°F42°F41°F41°F41°F41°F41°F40°F40°F43°F49°F54°F60°F63°F65°F65°F65°F64°F62°F57°F51°F50°F48°F46°F45°F
Feels Like 34°F33°F33°F32°F33°F33°F34°F32°F35°F40°F45°F50°F55°F57°F58°F57°F56°F53°F49°F42°F39°F37°F37°F36°F35°F35°F34°F34°F34°F34°F34°F34°F37°F44°F49°F55°F58°F59°F59°F58°F57°F54°F50°F45°F42°F41°F40°F39°F
Cloudiness 90%93%96%98%99%94%91%85%31%16%10%8%6%6%0%0%0%0%0%0%0%0%0%0%0%0%0%0%0%0%0%0%0%0%0%0%0%0%0%0%0%0%0%0%0%0%0%0%
Visibility 6 mi6 mi5 mi6 mi6 mi6 mi6 mi6 mi6 mi6 mi6 mi6 mi6 mi6 mi6 mi6 mi6 mi6 mi6 mi6 mi6 mi6 mi6 mi6 mi6 mi6 mi6 mi6 mi6 mi6 mi6 mi6 mi6 mi6 mi6 mi6 mi6 mi6 mi6 mi6 mi6 mi6 mi6 mi6 mi6 mi6 mi6 mi6 mi
Precipitation 84%84%76%100%100%77%77%74%0%0%0%0%0%0%0%0%0%0%0%0%0%0%0%0%0%0%0%0%0%0%0%0%0%0%0%0%0%0%0%0%0%0%0%0%0%0%0%0%
Humidity 61%76%86%91%93%94%94%94%91%83%74%63%54%46%41%40%43%48%60%66%69%68%66%67%70%72%75%76%76%77%79%82%78%68%59%49%41%36%36%36%36%42%52%62%64%66%70%71%
Dew Point 29°F33°F35°F36°F36°F36°F37°F36°F38°F40°F41°F42°F42°F40°F39°F38°F39°F40°F41°F38°F36°F35°F33°F33°F33°F33°F34°F34°F34°F34°F35°F35°F37°F39°F41°F41°F39°F38°F38°F38°F37°F39°F40°F39°F38°F38°F37°F37°F
Pressure 30.12"30.12"30.12"30.09"30.09"30.09"30.09"30.09"30.09"30.09"30.06"30.09"30.06"30.06"30.03"30"30"30"30"30.03"30.06"30.06"30.09"30.09"30.12"30.12"30.12"30.12"30.12"30.12"30.12"30.12"30.15"30.15"30.12"30.12"30.12"30.09"30.06"30.03"30.03"30.03"30.03"30.09"30.09"30.12"30.12"30.12"
Wind Speed 6 mph6.8 mph4.5 mph4.8 mph3.9 mph2.3 mph2.4 mph4.7 mph4 mph4.2 mph4.3 mph3.2 mph2.9 mph3.5 mph4 mph5.4 mph6.8 mph7 mph5.6 mph5.7 mph6.3 mph6.4 mph6.5 mph6.6 mph6 mph5.7 mph5.8 mph6.1 mph6.2 mph6.1 mph5.9 mph5.7 mph5.7 mph5.8 mph5.4 mph4.5 mph4.5 mph5.5 mph6.9 mph7.8 mph8.6 mph8.5 mph7.8 mph7.5 mph8.3 mph7.3 mph6.3 mph6 mph
Wind
Direction
79°
E
57°
ENE
54°
NE
43°
NE
65°
ENE
77°
ENE
354°
N
326°
NW
314°
NW
328°
NNW
334°
NNW
353°
N
303°
WNW
309°
NW
297°
WNW
293°
WNW
299°
WNW
306°
NW
307°
NW
301°
WNW
306°
NW
310°
NW
314°
NW
316°
NW
316°
NW
318°
NW
320°
NW
323°
NW
327°
NNW
325°
NW
325°
NW
320°
NW
324°
NW
333°
NNW
339°
NNW
345°
NNW
339°
NNW
337°
NNW
332°
NNW
331°
NNW
326°
NW
319°
NW
316°
NW
320°
NW
328°
NNW
331°
NNW
331°
NNW
337°
NNW

Daily Forecast

Date High Low Precip. Humidity
Today
Mar 3

Rain
63 °F
38 °F
100%
54%
Thursday
Mar 4

Clear
65 °F
40 °F
0%
41%
Friday
Mar 5

Clouds
61 °F
38 °F
9%
41%
Saturday
Mar 6

Rain
50 °F
39 °F
44%
78%
Sunday
Mar 7

Clear
62 °F
35 °F
0%
32%
Monday
Mar 8

Clear
62 °F
36 °F
0%
42%
Tuesday
Mar 9

Clear
63 °F
39 °F
0%
50%
Wednesday
Mar 10

Clouds
64 °F
47 °F
0%
65%
Thursday
Mar 11

Rain
65 °F
46 °F
100%
29%
Friday
Mar 12

Clear
65 °F
37 °F
0%
36%
Saturday
Mar 13

Rain
63 °F
48 °F
85%
56%
Sunday
Mar 14

Rain
65 °F
49 °F
100%
51%
Monday
Mar 15

Clear
61 °F
43 °F
0%
40%
Tuesday
Mar 16

Rain
54 °F
38 °F
98%
48%
Wednesday
Mar 17

Rain
50 °F
45 °F
100%
95%
Thursday
Mar 18

Rain
65 °F
41 °F
27%
35%


Temperature 8-14 Day Outlook



Precipitation 8-14 Day Outlook




Quick Links
Lake Lanier News
Lake Lanier Photos
Lake Lanier Videos




About Us
Contact Us
Site Map
Search Site
Advertise With Us
   
www.DiscoverLanier.com
THE LAKE LANIER WEBSITE

Copyright 2021, Lakes Online
Privacy    |    Legal